+ View the NASA Portal
+ Center for Near-Earth Object Studies
IMPORTANT:
The SSD Announcement email list is now available. Major changes are coming in the near future, including possible hostname and/or URL changes. To be notified of such changes, subscribe to this email list.
Please visit
this page
for more details.
Don't show this message again
JPL Small-Body Database Browser
Search:
[
help
]
266601 (2008 JV30)
Classification:
Main-belt Asteroid
SPK-ID:
2266601
[
Ephemeris
|
Orbit Diagram
|
Orbital Elements
|
Mission Design
|
Physical Parameters
|
Discovery Circumstances
|
Close-Approach Data
]
[ show orbit diagram ]
Orbital Elements at Epoch 2458600.5 (2019-Apr-27.0) TDB
Reference:
JPL 15
(heliocentric ecliptic J2000)
Element
Value
Uncertainty (1-sigma)
Units
e
.1285905417667266
6.9216e-08
a
2.666247842737948
3.4643e-08
au
q
2.323393588155909
1.6738e-07
au
i
6.058623453416461
5.739e-06
deg
node
112.0404325374264
5.8149e-05
deg
peri
211.2232055625708
6.232e-05
deg
M
107.9682536174911
2.3383e-05
deg
t
p
2458123.583027414407
(2018-Jan-05.08302741)
0.00010113
TDB
period
1590.190675298642
4.35
3.0992e-05
8.485e-08
d
yr
n
.2263879455414307
4.4122e-09
deg/d
Q
3.009102097319986
3.9097e-08
au
Orbit Determination Parameters
# obs. used (total)
175
data-arc span
7649 days (20.94 yr)
first obs. used
1998-01-23
last obs. used
2019-01-02
planetary ephem.
DE431
SB-pert. ephem.
SB431-N16
condition code
0
norm. resid. RMS
.6175
source
ORB
producer
Otto Matic
solution date
2019-Jul-14 10:51:39
Additional Information
Earth MOID
= 1.31235 au
Jupiter MOID
= 2.28313 au
T_jup
= 3.363
[ show covariance matrix ]
[
Ephemeris
|
Orbit Diagram
|
Orbital Elements
|
Mission Design
|
Physical Parameters
|
Discovery Circumstances
|
Close-Approach Data
]
Physical Parameter Table
Parameter
Symbol
Value
Units
Sigma
Reference
Notes
absolute magnitude
H
16.5
n/a
MPO460147
266601 (2008 JV30)
Discovered 2008-May-14 by Spacewatch at Kitt Peak
Reference:
20110218/Numbers.arc
Last Updated:
2011-02-22
[ show close-approach data ]
[
Ephemeris
|
Orbit Diagram
|
Orbital Elements
|
Mission Design
|
Physical Parameters
|
Discovery Circumstances
|
Close-Approach Data
]
2019-Dec-11 17:22 UT
(server date/time)
Site Manager:
Ryan S. Park
Webmaster
:
Alan B. Chamberlin